Weather History for Hot Springs, VA

Change the Weather History Date:

Monday, August 6, 2012

  Actual Average Record
Temperature  
Mean Temperature 68 °F -  
Max Temperature 73 °F 74 °F 82 °F (1998)
Min Temperature 64 °F 59 °F 46 °F (2004)
Cooling Degree Days 4    
Growing Degree Days 18 (Base 50)    
Moisture  
Dew Point 66 °F    
Average Humidity 97    
Maximum Humidity 100    
Minimum Humidity 78    
Precipitation  
Precipitation 0.00 in - - ()
Sea Level Pressure  
Sea Level Pressure 30.27 in    
Wind  
Wind Speed 9 mph (West)    
Max Wind Speed 16 mph    
Max Gust Speed 20 mph    
Visibility 5 miles    
Events Fog , Rain    
Averages and records for this station are not official NWS values.
T = Trace of Precipitation, MM = Missing Value Source: NWS Daily Summary

Daily Weather History Graph

Daily Weather History Graph

Search for Another Location

Airport:

Trip Planner

Search our weather history database for the weather conditions in past years. The results will help you decide how hot, cold, wet, or windy it might be!

Date:

Astronomy

Aug. 06, 2012 Rise Set
Actual Time 6:27 AM EDT 8:22 PM EDT
Civil Twilight 5:58 AM EDT 8:51 PM EDT
Nautical Twilight 5:23 AM EDT 9:26 PM EDT
Astronomical Twilight 4:45 AM EDT 10:03 PM EDT
Moon 10:37 PM EDT (8/6) 11:08 AM EDT (8/6)
Length of Visible Light 14h 52m
Length of Day
13h 55m
Waning Gibbous, 78% of the Moon is Illuminated
Aug 6
Waning Gibbous
Aug 9
Last Quarter
Aug 17
New
Aug 24
First Quarter
Aug 31
Full

Hourly Weather History & Observations

Time (EDT) Temp. Dew Point Humidity Pressure Visibility Wind Dir Wind Speed Gust Speed Precip Events Conditions
12:17 AM 66.2 °F 66.2 °F 100% 30.30 in 0.2 mi West 11.5 mph - N/A Rain Light Rain
12:37 AM 66.2 °F 66.2 °F 100% 30.29 in 0.2 mi West 9.2 mph - N/A Fog Fog
12:57 AM 66.2 °F 66.2 °F 100% 30.28 in 0.2 mi West 10.4 mph - N/A Fog Fog
1:17 AM 66.2 °F 66.2 °F 100% 30.27 in 0.2 mi West 11.5 mph - N/A   Drizzle
1:39 AM 66.2 °F 66.2 °F 100% 30.27 in 0.2 mi West 12.7 mph - N/A   Drizzle
1:57 AM 66.2 °F 66.2 °F 100% 30.27 in 0.2 mi West 13.8 mph - N/A   Drizzle
2:17 AM 66.2 °F 66.2 °F 100% 30.26 in 0.2 mi West 15.0 mph - N/A   Heavy Drizzle
2:37 AM 64.4 °F 64.4 °F 100% 30.26 in 0.2 mi West 15.0 mph - N/A   Drizzle
2:57 AM 64.4 °F 64.4 °F 100% 30.26 in 0.2 mi West 16.1 mph 19.6 mph N/A   Drizzle
3:17 AM 64.4 °F 64.4 °F 100% 30.26 in 0.2 mi West 12.7 mph - N/A   Drizzle
3:37 AM 64.4 °F 64.4 °F 100% 30.26 in 0.2 mi West 13.8 mph - N/A   Drizzle
3:57 AM 64.4 °F 64.4 °F 100% 30.26 in 0.2 mi West 12.7 mph - N/A Rain Light Rain
4:17 AM 64.4 °F 64.4 °F 100% 30.26 in 0.2 mi West 11.5 mph - N/A   Drizzle
4:37 AM 64.4 °F 64.4 °F 100% 30.26 in 0.2 mi West 12.7 mph - N/A   Drizzle
4:57 AM 64.4 °F 64.4 °F 100% 30.27 in 0.2 mi West 12.7 mph - N/A   Light Drizzle
5:17 AM 64.4 °F 64.4 °F 100% 30.27 in 0.5 mi West 12.7 mph - N/A   Light Drizzle
5:39 AM 64.4 °F 64.4 °F 100% 30.27 in 0.2 mi West 11.5 mph - N/A Fog Fog
5:57 AM 64.4 °F 64.4 °F 100% 30.27 in 0.8 mi West 10.4 mph - N/A   Overcast
6:19 AM 64.4 °F 64.4 °F 100% 30.27 in 5.0 mi West 10.4 mph - N/A   Overcast
6:37 AM 64.4 °F 64.4 °F 100% 30.28 in 0.2 mi West 10.4 mph - N/A Fog Fog
6:57 AM 64.4 °F 64.4 °F 100% 30.28 in 1.8 mi West 9.2 mph - N/A   Overcast
7:17 AM 64.4 °F 64.4 °F 100% 30.29 in 0.2 mi West 9.2 mph - N/A Fog Fog
7:37 AM 64.4 °F 64.4 °F 100% 30.29 in 0.2 mi West 9.2 mph - N/A Fog Fog
8:17 AM 64.4 °F 64.4 °F 100% 30.30 in 4.0 mi West 5.8 mph - N/A   Overcast
8:37 AM 64.4 °F 64.4 °F 100% 30.30 in 7.0 mi WNW 6.9 mph - N/A   Overcast
9:17 AM 66.2 °F 66.2 °F 100% 30.30 in 3.0 mi West 5.8 mph - N/A   Mostly Cloudy
9:37 AM 66.2 °F 66.2 °F 100% 30.30 in 0.2 mi West 6.9 mph - N/A Fog Fog
9:57 AM 66.2 °F 66.2 °F 100% 30.30 in 0.2 mi West 6.9 mph - N/A Fog Fog
10:17 AM 66.2 °F 66.2 °F 100% 30.30 in 0.2 mi West 5.8 mph - N/A Fog Fog
10:37 AM 66.2 °F 66.2 °F 100% 30.30 in 0.5 mi West 3.5 mph - N/A Fog Fog
10:57 AM 66.2 °F 66.2 °F 100% 30.30 in 7.0 mi West 3.5 mph - N/A   Overcast
11:17 AM 66.2 °F 66.2 °F 100% 30.31 in 0.8 mi West 6.9 mph - N/A   Overcast
11:37 AM 66.2 °F 66.2 °F 100% 30.31 in 0.2 mi WNW 8.1 mph - N/A Fog Fog
11:58 AM 66.2 °F 66.2 °F 100% 30.31 in 0.2 mi West 8.1 mph - N/A Fog Fog
12:17 PM 66.2 °F 66.2 °F 100% 30.31 in 0.5 mi West 9.2 mph - N/A Fog Fog
12:37 PM 66.2 °F 66.2 °F 100% 30.30 in 2.5 mi West 6.9 mph - N/A   Overcast
12:57 PM 68.0 °F 66.2 °F 94% 30.30 in 7.0 mi West 8.1 mph - N/A   Overcast
1:17 PM 69.8 °F 68.0 °F 94% 30.30 in 7.0 mi WSW 8.1 mph - N/A   Mostly Cloudy
1:37 PM 68.0 °F 68.0 °F 100% 30.29 in 7.0 mi West 8.1 mph - N/A   Overcast
1:57 PM 66.2 °F 66.2 °F 100% 30.28 in 2.5 mi West 9.2 mph - N/A   Light Drizzle
2:17 PM 66.2 °F 66.2 °F 100% 30.28 in 2.5 mi West 10.4 mph - N/A Rain Rain
2:37 PM 66.2 °F 66.2 °F 100% 30.27 in 5.0 mi West 11.5 mph - N/A   Light Drizzle
2:57 PM 69.8 °F 68.0 °F 94% 30.27 in 10.0 mi West 9.2 mph - N/A   Scattered Clouds
3:17 PM 68.0 °F 68.0 °F 100% 30.26 in 1.2 mi West 8.1 mph - N/A   Overcast
3:37 PM 69.8 °F 66.2 °F 88% 30.26 in 10.0 mi West 10.4 mph - N/A   Overcast
3:57 PM 69.8 °F 66.2 °F 88% 30.25 in 10.0 mi WNW 5.8 mph - N/A   Mostly Cloudy
4:17 PM 69.8 °F 66.2 °F 88% 30.24 in 10.0 mi West 8.1 mph - N/A   Scattered Clouds
4:37 PM 68.0 °F 66.2 °F 94% 30.24 in 7.0 mi West 8.1 mph - N/A   Mostly Cloudy
4:57 PM 69.8 °F 68.0 °F 94% 30.24 in 10.0 mi WNW 8.1 mph - N/A   Mostly Cloudy
5:17 PM 69.8 °F 68.0 °F 94% 30.24 in 10.0 mi WNW 5.8 mph - N/A   Mostly Cloudy
5:37 PM 73.4 °F 66.2 °F 78% 30.23 in 10.0 mi West 4.6 mph - N/A   Mostly Cloudy
5:57 PM 71.6 °F 66.2 °F 83% 30.23 in 10.0 mi WNW 9.2 mph - N/A   Mostly Cloudy
6:17 PM 71.6 °F 68.0 °F 88% 30.22 in 10.0 mi West 5.8 mph - N/A   Mostly Cloudy
6:37 PM 69.8 °F 68.0 °F 94% 30.22 in 10.0 mi WNW 6.9 mph - N/A   Clear
6:57 PM 69.8 °F 68.0 °F 94% 30.23 in 10.0 mi West 6.9 mph - N/A   Clear
7:17 PM 69.8 °F 68.0 °F 94% 30.24 in 10.0 mi WNW 4.6 mph - N/A   Scattered Clouds
7:37 PM 69.8 °F 68.0 °F 94% 30.24 in 10.0 mi West 3.5 mph - N/A   Scattered Clouds
7:57 PM 69.8 °F 68.0 °F 94% 30.24 in 10.0 mi Calm Calm - N/A   Mostly Cloudy
8:17 PM 69.8 °F 68.0 °F 94% 30.23 in 10.0 mi Calm Calm - N/A   Scattered Clouds
8:37 PM 68.0 °F 66.2 °F 94% 30.23 in 10.0 mi West 4.6 mph - N/A   Scattered Clouds
8:57 PM 68.0 °F 68.0 °F 100% 30.23 in 10.0 mi Calm Calm - N/A   Mostly Cloudy
9:17 PM 68.0 °F 68.0 °F 100% 30.23 in 10.0 mi Calm Calm - N/A   Mostly Cloudy
9:37 PM 68.0 °F 66.2 °F 94% 30.24 in 10.0 mi West 3.5 mph - N/A   Mostly Cloudy
9:57 PM 68.0 °F 66.2 °F 94% 30.25 in 10.0 mi West 4.6 mph - N/A   Mostly Cloudy
10:17 PM 66.2 °F 66.2 °F 100% 30.25 in 10.0 mi Calm Calm - N/A   Mostly Cloudy
10:37 PM 66.2 °F 66.2 °F 100% 30.25 in 7.0 mi Calm Calm - N/A   Scattered Clouds
10:57 PM 64.4 °F 64.4 °F 100% 30.25 in 7.0 mi West 3.5 mph - N/A   Clear
11:17 PM 66.2 °F 66.2 °F 100% 30.24 in 7.0 mi West 4.6 mph - N/A   Clear
11:37 PM 66.2 °F 66.2 °F 100% 30.24 in 7.0 mi West 4.6 mph - N/A   Clear
11:58 PM 66.2 °F 66.2 °F 100% 30.24 in 5.0 mi Calm Calm - N/A   Scattered Clouds